Skip Page Navigation
NASA JPL Caltech
NASA Logo - Jet Propulsion Laboratory + View the NASA Portal
+ Center for Near-Earth Object Studies
JPL Home Earth Solar System Stars & Galaxies Technology
JPL Solar System Dynamics
BODIES ORBITS EPHEMERIDES TOOLS PHYSICAL DATA DISCOVERY FAQ SITE MAP
IMPORTANT: The SSD Announcement email list is now available. Major changes are coming in the near future, including possible hostname and/or URL changes. To be notified of such changes, subscribe to this email list.

Please visit this page for more details.


JPL Small-Body Database Browser
Search: [ help ]  
15175 (6113 P-L)
Classification: Main-belt Asteroid          SPK-ID: 2015175
Ephemeris | Orbit Diagram | Orbital Elements | Mission Design | Physical Parameters | Discovery Circumstances ]

[ show orbit diagram ]
Orbital Elements at Epoch 2459000.5 (2020-May-31.0) TDB
Reference: JPL 25 (heliocentric ecliptic J2000)
 Element Value Uncertainty (1-sigma)   Units 
e .1381600910068842 3.9153e-08  
a 2.559785915679857 9.3909e-09 au
q 2.206125660611387 1.0146e-07 au
i 1.174332504125079 5.3692e-06 deg
node 331.0336390368403 0.00017124 deg
peri 320.1148375240635 0.00017212 deg
M 263.1698809927611 1.7107e-05 deg
tp 2459402.857276209161
(2021-Jul-07.35727621)
7.1418e-05 TDB
period 1495.904589608833
4.10
8.2319e-06
2.254e-08
d
yr
n .2406570596151037 1.3243e-09 deg/d
Q 2.913446170748326 1.0688e-08 au
  Orbit Determination Parameters
   # obs. used (total)      1245  
   data-arc span      21683 days (59.36 yr)  
   first obs. used      1960-09-24  
   last obs. used      2020-02-05  
   planetary ephem.      DE431  
   SB-pert. ephem.      SB431-N16  
   condition code      0  
   norm. resid. RMS      .54132  
   source      ORB  
   producer      Otto Matic  
   solution date      2020-Feb-22 21:12:27  

Additional Information
 Earth MOID = 1.19005 au 
 Jupiter MOID = 2.25088 au 
 T_jup = 3.422 
[ show covariance matrix ]

Ephemeris | Orbit Diagram | Orbital Elements | Mission Design | Physical Parameters | Discovery Circumstances ]

Physical Parameter Table
Parameter Symbol Value Units Sigma Reference Notes
absolute magnitude H 14.8   n/a MPO358778  

15175 (6113 P-L)          Discovered 1960-Sep-24 by van Houten, C. J., van Houten-Groeneveld, I., Gehrels, T. at Palomar
Reference: 20000523/Numbers.arcLast Updated: 2004-04-19

Alternate Designations
 6113 P-L = 1997 TU7 
Ephemeris | Orbit Diagram | Orbital Elements | Mission Design | Physical Parameters | Discovery Circumstances ]
ABOUT SSD CREDITS/AWARDS PRIVACY/COPYRIGHT GLOSSARY LINKS
FirstGov 2020-Mar-29 22:46 UT
(server date/time)  
NASA Home Page
Site Manager:   Ryan S. Park
Webmaster  Alan B. Chamberlin